Skip Page Navigation
NASA JPL Caltech
NASA Logo - Jet Propulsion Laboratory + View the NASA Portal
+ Center for Near-Earth Object Studies
JPL Home Earth Solar System Stars & Galaxies Technology
JPL Solar System Dynamics
BODIES ORBITS EPHEMERIDES TOOLS PHYSICAL DATA DISCOVERY FAQ SITE MAP
JPL Small-Body Database Browser
Search: [ help ]  
173366 (2000 AU69)
Classification: Main-belt Asteroid          SPK-ID: 2173366
Ephemeris | Orbit Diagram | Orbital Elements | Mission Design | Physical Parameters | Discovery Circumstances ]

[ show orbit diagram ]
Orbital Elements at Epoch 2459000.5 (2020-May-31.0) TDB
Reference: JPL 17 (heliocentric ecliptic J2000)
 Element Value Uncertainty (1-sigma)   Units 
e .1535582693807708 3.6347e-08  
a 2.578670297277867 1.4913e-08 au
q 2.182694149124281 9.5988e-08 au
i 9.773391521369792 4.6051e-06 deg
node 106.304910261138 2.7446e-05 deg
peri 312.0418751730567 3.3263e-05 deg
M 352.1269342333878 2.1089e-05 deg
tp 2459033.577565043513
(2020-Jul-03.07756504)
8.8763e-05 TDB
period 1512.488751988246
4.14
1.312e-05
3.592e-08
d
yr
n .2380182989967767 2.0648e-09 deg/d
Q 2.974646445431455 1.7203e-08 au
  Orbit Determination Parameters
   # obs. used (total)      552  
   data-arc span      7328 days (20.06 yr)  
   first obs. used      1999-10-10  
   last obs. used      2019-11-02  
   planetary ephem.      DE431  
   SB-pert. ephem.      SB431-N16  
   condition code      0  
   norm. resid. RMS      .58527  
   source      ORB  
   producer      Otto Matic  
   solution date      2019-Dec-04 14:33:51  

Additional Information
 Earth MOID = 1.20914 au 
 Jupiter MOID = 2.35662 au 
 T_jup = 3.389 
[ show covariance matrix ]

Ephemeris | Orbit Diagram | Orbital Elements | Mission Design | Physical Parameters | Discovery Circumstances ]

Physical Parameter Table
Parameter Symbol Value Units Sigma Reference Notes
absolute magnitude H 15.6   n/a MPO449898  
diameter diameter 5.022 km 0.282 urn:nasa:pds:neowise_diameters_albedos::2.0[mainbelt] (http://adsabs.harvard.edu/abs/2011ApJ...741...68M)  
geometric albedo albedo 0.053   0.006 urn:nasa:pds:neowise_diameters_albedos::2.0[mainbelt] (http://adsabs.harvard.edu/abs/2011ApJ...741...68M)  

173366 (2000 AU69)          Discovered 2000-Jan-05 by LINEAR at Socorro
Reference: 20080122/Numbers.arcLast Updated: 2008-01-28
Ephemeris | Orbit Diagram | Orbital Elements | Mission Design | Physical Parameters | Discovery Circumstances ]
ABOUT SSD CREDITS/AWARDS PRIVACY/COPYRIGHT GLOSSARY LINKS
FirstGov 2020-Aug-07 18:31 UT
(server date/time)  
NASA Home Page
Site Manager:   Ryan S. Park
Webmaster  Alan B. Chamberlin